GW3823 Weather Reports


time (UTC)temp
C
wind
direction
speed
KPH
gust
KPH
rain 1hr
cm
rain 24hr
cm
rain mn
cm
humidity
%
barometer
mb
20260906223805 26 150 12.9 24.1 0.00 0.00 0.00 24 1011.9
20260906223305 26 229 9.7 19.3 0.00 0.00 0.00 23 1012.0
20260906221805 26 201 6.4 22.5 0.00 0.00 0.00 24 1011.8
20260906221305 26 157 9.7 22.5 0.00 0.00 0.00 24 1011.8
20260906220804 26 180 4.8 20.9 0.00 0.00 0.00 23 1011.9
20260906220305 26 218 8.0 24.1 0.00 0.00 0.00 23 1019.8
20260906215805 29 178 11.3 24.1 0.00 0.00 0.00 22 1012.0
20260906215306 29 150 12.9 22.5 0.00 0.00 0.00 22 1016.9
20260906214805 29 207 11.3 25.7 0.00 0.00 0.00 22 1012.3
20260906214305 27 198 9.7 25.7 0.00 0.00 0.00 24 1012.3
20260906213805 27 197 4.8 29.0 0.00 0.00 0.00 24 1012.3
20260906213305 29 220 9.7 25.7 0.00 0.00 0.00 24 1012.3
20260906212306 29 183 8.0 32.2 0.00 0.00 0.00 24 1012.4
20260906211804 29 173 16.1 33.8 0.00 0.00 0.00 24 1016.8
20260906211304 29 180 11.3 27.4 0.00 0.00 0.00 24 1012.2
20260906210804 29 179 8.0 33.8 0.00 0.00 0.00 23 1012.4
20260906210305 29 177 9.7 25.7 0.00 0.00 0.00 24 1012.7
20260906205805 29 238 9.7 37.0 0.00 0.00 0.00 23 1016.3
20260906205306 29 164 11.3 27.4 0.00 0.00 0.00 24 1012.6
20260906204305 29 196 9.7 20.9 0.00 0.00 0.00 22 1012.8
20260906203805 26 172 8.0 22.5 0.00 0.00 0.00 25 1012.7
20260906203305 29 215 9.7 32.2 0.00 0.00 0.00 25 1012.7
20260906202805 29 205 16.1 27.4 0.00 0.00 0.00 24 1012.6
20260906202307 29 169 8.0 25.7 0.00 0.00 0.00 26 1017.2
20260906201305 29 201 11.3 27.4 0.00 0.00 0.00 24 1013.0
20260906200804 29 218 12.9 27.4 0.00 0.00 0.00 26 1012.9
20260906195306 28 234 9.7 22.5 0.00 0.00 0.00 27 1017.7
20260906194804 28 189 9.7 27.4 0.00 0.00 0.00 25 1013.1
20260906194305 28 190 9.7 24.1 0.00 0.00 0.00 26 1017.3
20260906193805 28 205 8.0 14.5 0.00 0.00 0.00 25 1013.3
20260906193304 28 158 9.7 14.5 0.00 0.00 0.00 26 1017.9
20260906192804 28 180 8.0 16.1 0.00 0.00 0.00 25 1013.3
20260906192307 28 248 9.7 20.9 0.00 0.00 0.00 24 1018.6
20260906191805 28 158 11.3 29.0 0.00 0.00 0.00 25 1013.5
20260906191305 28 284 8.0 22.5 0.00 0.00 0.00 27 1017.5
20260906190804 28 249 4.8 19.3 0.00 0.00 0.00 26 1013.4
20260906190304 28 204 11.3 19.3 0.00 0.00 0.00 26 1018.8
20260906185804 26 238 4.8 11.3 0.00 0.00 0.00 25 1013.7
20260906185306 25 141 9.7 9.7 0.00 0.00 0.00 27 1013.6
20260906184804 25 199 8.0 12.9 0.00 0.00 0.00 26 1013.8
20260906184305 25 248 8.0 11.3 0.00 0.00 0.00 27 1013.9
20260906183804 25 260 9.7 11.3 0.00 0.00 0.00 28 1013.9
20260906183304 25 260 9.7 19.3 0.00 0.00 0.00 28 1014.1
20260906182805 25 155 4.8 8.0 0.00 0.00 0.00 29 1014.1
20260906182306 25 155 4.8 14.5 0.00 0.00 0.00 28 1014.3
20260906181805 25 155 4.8 14.5 0.00 0.00 0.00 29 1014.3
20260906181304 25 208 4.8 9.7 0.00 0.00 0.00 29 1014.3
20260906180805 25 208 4.8 9.7 0.00 0.00 0.00 29 1020.1
20260906180306 25 208 4.8 9.7 0.00 0.00 0.00 30 1014.6
20260906175306 23 178 3.2 14.5 0.00 0.00 0.00 32 1014.7
20260906174805 23 178 3.2 14.5 0.00 0.00 0.00 32 1014.9
20260906174304 23 178 6.4 16.1 0.00 0.00 0.00 32 1014.9
20260906173804 22 132 3.2 4.8 0.00 0.00 0.00 33 1015.0
20260906173304 22 149 3.2 4.8 0.00 0.00 0.00 34 1015.2
20260906172804 22 149 3.2 4.8 0.00 0.00 0.00 34 1015.3
20260906172306 22 149 3.2 4.8 0.00 0.00 0.00 34 1015.4
20260906171804 22 149 3.2 4.8 0.00 0.00 0.00 34 1015.5
20260906171304 22 149 3.2 4.8 0.00 0.00 0.00 34 1019.5
20260906170804 22 149 3.2 12.9 0.00 0.00 0.00 34 1015.6
20260906165804 21 156 4.8 9.7 0.00 0.00 0.00 37 1015.7
20260906165306 21 167 3.2 9.7 0.00 0.00 0.00 39 1015.7
20260906164805 21 167 3.2 9.7 0.00 0.00 0.00 38 1015.8
20260906164304 21 167 4.8 9.7 0.00 0.00 0.00 39 1015.8
20260906163805 21 195 4.8 8.0 0.00 0.00 0.00 36 1015.8
20260906163304 19 249 1.6 11.3 0.00 0.00 0.00 43 1015.9
20260906162804 18 166 1.6 1.6 0.00 0.00 0.00 46 1015.9
20260906162306 18 166 1.6 1.6 0.00 0.00 0.00 45 1016.0
20260906161804 18 166 1.6 8.0 0.00 0.00 0.00 46 1016.0
20260906161304 17 130 3.2 8.0 0.00 0.00 0.00 46 1016.0
20260906160804 17 130 3.2 12.9 0.00 0.00 0.00 47 1016.2
20260906160305 17 214 1.6 8.0 0.00 0.00 0.00 47 1016.5
20260906155804 16 179 3.2 9.7 0.00 0.00 0.00 49 1020.7
20260906155306 16 167 3.2 12.9 0.00 0.00 0.00 51 1016.2
20260906154805 16 128 4.8 12.9 0.00 0.00 0.00 51 1016.2
20260906153804 16 155 4.8 9.7 0.00 0.00 0.00 51 1016.0
20260906152804 15 44 4.8 8.0 0.00 0.00 0.00 53 1016.3
20260906152306 15 62 3.2 12.9 0.00 0.00 0.00 55 1026.2
20260906151304 13 62 4.8 12.9 0.00 0.00 0.00 62 1016.6
20260906150805 13 42 8.0 8.0 0.00 0.00 0.00 56 1016.7
20260906150304 12 64 4.8 4.8 0.00 0.00 0.00 66 1016.6
20260906145804 12 85 3.2 4.8 0.00 0.00 0.00 66 1016.6
20260906145306 11 93 1.6 4.8 0.00 0.00 0.00 66 1016.7
20260906144304 12 152 3.2 8.0 0.00 0.00 0.00 64 1016.8
20260906143804 12 38 4.8 12.9 0.00 0.00 0.00 64 1027.1
20260906143305 12 59 9.7 12.9 0.00 0.00 0.00 65 1016.6
20260906142803 11 48 3.2 11.3 0.00 0.00 0.00 65 1016.5
20260906141804 11 50 4.8 9.7 0.00 0.00 0.00 65 1016.7
20260906141304 11 61 6.4 12.9 0.00 0.00 0.00 67 1026.9
20260906140804 11 47 9.7 12.9 0.00 0.00 0.00 69 1016.8
20260906140304 11 56 4.8 8.0 0.00 0.00 0.00 70 1016.8
20260906135804 10 49 6.4 8.0 0.00 0.00 0.00 70 1016.9
20260906135306 10 204 3.2 8.0 0.00 0.00 0.00 72 1016.8
20260906134804 10 170 3.2 8.0 0.00 0.00 0.00 72 1016.7
20260906134305 10 198 3.2 11.3 0.00 0.00 0.00 72 1016.6
20260906133804 10 38 8.0 12.9 0.00 0.00 0.00 68 1025.8
20260906133304 10 73 9.7 12.9 0.00 0.00 0.00 73 1016.7
20260906132804 9 63 8.0 12.9 0.00 0.00 0.00 72 1016.6
20260906132306 10 51 8.0 12.9 0.00 0.00 0.00 71 1016.4
20260906131804 9 58 8.0 11.3 0.00 0.00 0.00 72 1021.4
20260906131304 10 52 9.7 11.3 0.00 0.00 0.00 72 1016.3
20260906130804 9 59 3.2 8.0 0.00 0.00 0.00 73 1020.5
20260906125804 9 66 3.2 9.7 0.00 0.00 0.00 73 1016.2
20260906125306 10 56 8.0 11.3 0.00 0.00 0.00 72 1016.2
20260906124804 10 31 8.0 11.3 0.00 0.00 0.00 71 1016.1
20260906124304 9 48 4.8 9.7 0.00 0.00 0.00 73 1016.1
20260906123804 9 48 6.4 9.7 0.00 0.00 0.00 72 1016.1
20260906123304 8 55 1.6 4.8 0.00 0.00 0.00 74 1025.7
20260906122306 8 40 0.0 3.2 0.00 0.00 0.00 74 1016.2
20260906121304 9 200 1.6 3.2 0.00 0.00 0.00 75 1016.0
20260906120804 9 142 1.6 3.2 0.00 0.00 0.00 73 1025.1
20260906115805 10 184 3.2 8.0 0.00 0.00 0.00 73 1016.1
20260906114804 10 55 3.2 12.9 0.00 0.00 0.00 73 1016.0
20260906114304 10 44 8.0 12.9 0.00 0.00 0.00 72 1016.0
20260906113804 10 52 6.4 9.7 0.00 0.00 0.00 72 1016.1
20260906112804 10 33 8.0 11.3 0.00 0.00 0.00 62 1016.1
20260906112306 10 62 8.0 14.5 0.00 0.00 0.00 72 1020.5
20260906111804 10 60 9.7 16.1 0.00 0.00 0.00 61 1016.1
20260906111304 10 44 6.4 9.7 0.00 0.00 0.00 71 1020.0
20260906110804 10 40 6.4 9.7 0.00 0.00 0.00 71 1016.1
20260906110304 10 68 8.0 11.3 0.00 0.00 0.00 68 1021.6
20260906105804 10 14 4.8 9.7 0.00 0.00 0.00 71 1016.2
20260906104304 10 35 3.2 9.7 0.00 0.00 0.00 67 1016.2
20260906103304 10 68 3.2 12.9 0.00 0.00 0.00 66 1016.0
20260906102803 10 77 9.7 12.9 0.00 0.00 0.00 65 1016.0
20260906101804 10 69 8.0 11.3 0.00 0.00 0.00 66 1015.9
20260906101304 10 79 8.0 9.7 0.00 0.00 0.00 67 1016.1
20260906095804 10 36 1.6 9.7 0.00 0.00 0.00 68 1024.9
20260906095306 10 46 3.2 9.7 0.00 0.00 0.00 66 1015.9
20260906094805 10 68 3.2 14.5 0.00 0.00 0.00 66 1015.8
20260906093804 11 70 8.0 19.3 0.00 0.00 0.00 64 1015.9
20260906093304 10 65 11.3 19.3 0.00 0.00 0.00 64 1015.9
20260906092803 11 51 11.3 16.1 0.00 0.00 0.00 64 1015.8
20260906092306 10 47 8.0 16.1 0.00 0.00 0.00 65 1016.0
20260906091304 10 77 8.0 11.3 0.00 0.00 0.00 65 1015.9
20260906090303 10 59 8.0 11.3 0.00 0.00 0.00 64 1021.3
20260906085804 11 60 8.0 14.5 0.00 0.00 0.00 65 1015.9
20260906085306 11 47 6.4 16.1 0.00 0.00 0.00 65 1015.8
20260906084804 11 60 11.3 16.1 0.00 0.00 0.00 64 1016.0
20260906083804 11 47 9.7 16.1 0.00 0.00 0.00 63 1015.8
20260906083304 10 44 3.2 8.0 0.00 0.00 0.00 64 1016.0
20260906082306 11 55 3.2 16.1 0.00 0.00 0.00 63 1015.8
20260906081804 11 59 11.3 19.3 0.00 0.00 0.00 62 1015.8
20260906081306 11 76 11.3 19.3 0.00 0.00 0.00 62 1020.2
20260906080807 11 52 9.7 16.1 0.00 0.00 0.00 62 1015.6
20260906080306 11 51 8.0 20.9 0.00 0.00 0.00 63 1015.8
20260906075806 12 73 8.0 16.1 0.00 0.00 0.00 60 1015.8
20260906075307 11 80 9.7 16.1 0.00 0.00 0.00 59 1015.7
20260906074806 12 65 9.7 22.5 0.00 0.00 0.00 57 1015.6
20260906074306 12 62 9.7 16.1 0.00 0.00 0.00 59 1015.7
20260906073806 11 71 12.9 16.1 0.00 0.00 0.00 60 1015.7
20260906073306 11 84 11.3 19.3 0.00 0.00 0.00 59 1015.8
20260906072806 12 80 9.7 19.3 0.00 0.00 0.00 57 1015.9
20260906071306 11 104 4.8 12.9 0.00 0.00 0.00 59 1016.0
20260906070806 11 73 6.4 12.9 0.00 0.00 0.00 58 1019.7
20260906070306 12 51 3.2 4.8 0.00 0.00 0.00 57 1015.8
20260906065806 12 114 1.6 3.2 0.00 0.00 0.00 60 1019.3
20260906065306 12 55 0.0 1.6 0.00 0.00 0.00 59 1015.8
20260906064807 12 169 1.6 3.2 0.00 0.00 0.00 59 1024.4
20260906064306 12 72 0.0 8.0 0.00 0.00 0.00 57 1015.6
20260906063306 12 75 8.0 14.5 0.00 0.00 0.00 55 1015.9
20260906062806 12 69 3.2 8.0 0.00 0.00 0.00 50 1015.6
20260906062306 12 63 1.6 8.0 0.00 0.00 0.00 57 1015.6
20260906060806 13 68 9.7 14.5 0.00 0.00 0.00 53 1018.3
20260906060307 12 34 3.2 8.0 0.00 0.00 0.00 54 1015.6
20260906055806 13 34 6.4 8.0 0.00 0.00 0.00 54 1015.6
20260906055306 13 86 4.8 8.0 0.00 0.00 0.00 52 1015.6
20260906054806 13 11 1.6 11.3 0.00 0.00 0.00 53 1015.5
20260906054306 13 72 9.7 11.3 0.00 0.00 0.00 52 1015.5
20260906053806 13 55 3.2 8.0 0.00 0.00 0.00 52 1015.5
20260906053306 13 52 3.2 22.5 0.00 0.00 0.00 50 1023.4
20260906052806 13 58 12.9 22.5 0.00 0.00 0.00 50 1015.5
20260906052306 13 70 8.0 14.5 0.00 0.00 0.00 50 1018.4
20260906051807 14 66 8.0 14.5 0.00 0.00 0.00 48 1015.5
20260906051306 13 45 4.8 19.3 0.00 0.00 0.00 49 1020.0
20260906050806 13 48 6.4 11.3 0.00 0.00 0.00 49 1015.4
20260906050306 13 63 8.0 14.5 0.00 0.00 0.00 50 1015.5
20260906044806 15 74 4.8 11.3 0.00 0.00 0.00 46 1015.5
20260906044306 15 58 4.8 11.3 0.00 0.00 0.00 45 1015.6
20260906043806 15 51 3.2 4.8 0.00 0.00 0.00 46 1015.5
20260906042806 15 73 6.4 19.3 0.00 0.00 0.00 46 1015.7
20260906042307 15 66 14.5 19.3 0.00 0.00 0.00 45 1015.7
20260906041805 16 77 8.0 12.9 0.00 0.00 0.00 44 1015.5
20260906041306 16 20 9.7 14.5 0.00 0.00 0.00 43 1015.5
20260906040806 16 63 8.0 20.9 0.00 0.00 0.00 42 1015.5
20260906035807 16 99 4.8 19.3 0.00 0.00 0.00 43 1017.1
20260906035306 16 61 11.3 20.9 0.00 0.00 0.00 44 1015.8
20260906034806 16 57 12.9 25.7 0.00 0.00 0.00 43 1016.8
20260906034307 15 68 16.1 25.7 0.00 0.00 0.00 44 1015.7
20260906033806 16 57 11.3 22.5 0.00 0.00 0.00 44 1016.4
20260906033306 17 69 8.0 22.5 0.00 0.00 0.00 42 1017.3
20260906032806 16 61 14.5 20.9 0.00 0.00 0.00 43 1015.9
20260906032306 17 81 12.9 19.3 0.00 0.00 0.00 42 1016.7
20260906031806 17 81 8.0 16.1 0.00 0.00 0.00 42 1015.7
20260906031306 17 74 12.9 22.5 0.00 0.00 0.00 41 1016.8
20260906030806 16 74 11.3 25.7 0.00 0.00 0.00 43 1015.0
20260906030306 17 75 16.1 32.2 0.00 0.00 0.00 41 1014.8
20260906025806 16 64 14.5 24.1 0.00 0.00 0.00 42 1015.2
20260906025306 24 74 14.5 20.9 0.00 0.00 0.00 35 1016.0
20260906024806 16 70 11.3 19.3 0.00 0.00 0.00 42 1014.9
20260906024305 17 91 11.3 19.3 0.00 0.00 0.00 42 1015.7
20260906023806 19 56 8.0 12.9 0.00 0.00 0.00 42 1016.6
20260906023306 18 84 1.6 1.6 0.00 0.00 0.00 41 1015.6
20260906022806 20 91 1.6 3.2 0.00 0.00 0.00 41 1016.4
20260906021805 20 267 1.6 3.2 0.00 0.00 0.00 40 1016.5
20260906020806 20 57 3.2 9.7 0.00 0.00 0.00 38 1016.1
20260906020305 20 74 3.2 9.7 0.00 0.00 0.00 37 1015.0
20260906015306 19 55 6.4 11.3 0.00 0.00 0.00 37 1014.6
20260906014806 21 62 9.7 11.3 0.00 0.00 0.00 36 1015.5
20260906014306 22 34 3.2 9.7 0.00 0.00 0.00 32 1014.4
20260906013806 22 218 3.2 4.8 0.00 0.00 0.00 29 1013.9
20260906013306 22 224 3.2 4.8 0.00 0.00 0.00 32 1018.0
20260906012805 21 337 1.6 3.2 0.00 0.00 0.00 34 1013.9
20260906012306 23 341 1.6 8.0 0.00 0.00 0.00 33 1018.2
20260906011305 22 330 0.0 4.8 0.00 0.00 0.00 34 1014.0
20260906010806 22 34 3.2 4.8 0.00 0.00 0.00 32 1013.9
20260906010306 23 294 0.0 4.8 0.00 0.00 0.00 28 1013.8
20260906005806 23 295 0.0 4.8 0.00 0.00 0.00 28 1014.3
20260906005306 24 329 1.6 11.3 0.00 0.00 0.00 20 1015.1
20260906004806 23 193 8.0 12.9 0.00 0.00 0.00 28 1013.9
20260906004306 24 200 1.6 9.7 0.00 0.00 0.00 27 1014.7
20260906003806 25 178 3.2 12.9 0.00 0.00 0.00 26 1015.7
20260906003306 24 243 3.2 12.9 0.00 0.00 0.00 27 1014.4
20260906002806 25 178 4.8 20.9 0.00 0.00 0.00 26 1015.4
20260906002306 25 181 4.8 16.1 0.00 0.00 0.00 28 1014.2
20260906001805 25 199 4.8 20.9 0.00 0.00 0.00 27 1015.2
20260906001306 25 157 14.5 20.9 0.00 0.00 0.00 27 1013.7
20260906000805 25 98 3.2 16.1 0.00 0.00 0.00 26 1014.9
20260906000305 25 232 6.4 12.9 0.00 0.00 0.00 28 1013.6
20260905235805 25 206 4.8 19.3 0.00 0.00 0.00 27 1013.7
20260905234305 26 191 8.0 14.5 0.00 0.00 0.00 25 1013.4
20260905233805 26 232 4.8 12.9 0.00 0.00 0.00 26 1013.4
20260905233306 26 141 4.8 14.5 0.00 0.00 0.00 25 1013.4
20260905232806 25 205 4.8 11.3 0.00 0.00 0.00 26 1013.4
20260905232306 26 170 4.8 14.5 0.00 0.00 0.00 25 1013.5
20260905231806 25 218 6.4 14.5 0.00 0.00 0.00 26 1013.5
20260905230806 26 161 9.7 22.5 0.00 0.00 0.00 24 1013.4
20260905230305 26 211 4.8 16.1 0.00 0.00 0.00 24 1013.5
20260905225806 30 217 8.0 22.5 0.00 0.00 0.00 25 1013.6
20260905225306 30 188 8.0 22.5 0.00 0.00 0.00 24 1013.4
20260905224806 30 194 6.4 25.7 0.00 0.00 0.00 24 1013.3
20260905224306 30 205 8.0 25.7 0.00 0.00 0.00 24 1013.5